AFL7436 UUEE-UNOO

Flight info

Callsign AFL7436
Flight time 2h 51m
Altitude 35000
Route K0798F350 OLMUN3J OLMUN T629 IPSIL T830 LAMGU N604 OGSIN P983 TINRI A305 LUKAS B236 BUNET BUNET6F
Aircraft A320/M-SADIE2E3FGHJ1RWY/LB1U1

Departure

Time 2026-05-06 16:12
Airport Sheremetyevo International Airport (UUEE)

Arrival

Time 2026-05-06 19:04
Airport Omsk Central Airport (UNOO)
Time Latitude Longitude Altitude Speed Heading
2026-05-06 15:51 55.97712 37.40135 639 ft 0 kts 165°
2026-05-06 16:03 55.97694 37.40144 644 ft 2 kts 165°
2026-05-06 16:03 55.97674 37.40152 639 ft 3 kts 168°
2026-05-06 16:03 55.97664 37.40169 643 ft 3 kts 105°
2026-05-06 16:04 55.97668 37.40202 639 ft 3 kts 81°
2026-05-06 16:04 55.97671 37.40216 639 ft 0 kts 75°
2026-05-06 16:06 55.97675 37.40245 639 ft 6 kts 75°
2026-05-06 16:07 55.97694 37.40371 642 ft 14 kts 75°
2026-05-06 16:07 55.97716 37.40524 641 ft 11 kts 79°
2026-05-06 16:07 55.97665 37.40598 639 ft 11 kts 165°
2026-05-06 16:07 55.97598 37.40652 643 ft 11 kts 127°
2026-05-06 16:08 55.97602 37.40788 639 ft 11 kts 74°
2026-05-06 16:08 55.97599 37.40915 642 ft 10 kts 117°
2026-05-06 16:08 55.97603 37.41035 639 ft 11 kts 75°
2026-05-06 16:08 55.97582 37.41145 644 ft 10 kts 156°
2026-05-06 16:09 55.97538 37.41217 639 ft 8 kts 97°
2026-05-06 16:09 55.97554 37.41314 641 ft 8 kts 75°
2026-05-06 16:09 55.97568 37.41409 639 ft 8 kts 75°
2026-05-06 16:09 55.97583 37.41507 645 ft 11 kts 75°
2026-05-06 16:10 55.97610 37.41688 642 ft 17 kts 75°
2026-05-06 16:10 55.97644 37.41911 639 ft 20 kts 75°
2026-05-06 16:10 55.97682 37.42165 639 ft 23 kts 75°
2026-05-06 16:10 55.97722 37.42437 647 ft 20 kts 75°
2026-05-06 16:11 55.97756 37.42663 640 ft 14 kts 75°
2026-05-06 16:11 55.97744 37.42788 645 ft 10 kts 151°
2026-05-06 16:11 55.97678 37.42821 639 ft 10 kts 165°
2026-05-06 16:11 55.97614 37.42830 640 ft 9 kts 209°
2026-05-06 16:12 55.97584 37.42696 641 ft 25 kts 255°
2026-05-06 16:12 55.97461 37.41873 638 ft 108 kts 255°
2026-05-06 16:12 55.97210 37.40198 682 ft 164 kts 256°
2026-05-06 16:12 55.96913 37.38257 1471 ft 161 kts 258°
2026-05-06 16:13 55.96608 37.36325 2350 ft 162 kts 257°
2026-05-06 16:13 55.96293 37.34326 2920 ft 176 kts 257°
2026-05-06 16:13 55.95943 37.32090 3355 ft 199 kts 256°
2026-05-06 16:13 55.95551 37.29584 3802 ft 220 kts 256°
2026-05-06 16:14 55.95119 37.26834 4410 ft 241 kts 256°
2026-05-06 16:14 55.94656 37.23871 5310 ft 251 kts 256°
2026-05-06 16:14 55.94182 37.20862 6478 ft 252 kts 256°
2026-05-06 16:14 55.93702 37.17847 7604 ft 253 kts 256°
2026-05-06 16:15 55.93220 37.14822 8702 ft 255 kts 256°
2026-05-06 16:15 55.92733 37.11760 9763 ft 259 kts 256°
2026-05-06 16:15 55.92246 37.08651 10678 ft 266 kts 257°
2026-05-06 16:15 55.92177 37.05303 11212 ft 284 kts 281°
2026-05-06 16:16 55.93034 37.02068 12014 ft 299 kts 306°
2026-05-06 16:16 55.94750 36.99849 12878 ft 318 kts 335°
2026-05-06 16:16 55.96990 36.99360 13738 ft 338 kts
2026-05-06 16:16 55.99242 37.00832 14490 ft 355 kts 28°
2026-05-06 16:17 56.01190 37.03626 15306 ft 364 kts 42°
2026-05-06 16:17 56.02889 37.07019 16103 ft 369 kts 49°
2026-05-06 16:17 56.04485 37.10652 16895 ft 373 kts 50°
2026-05-06 16:17 56.06092 37.14335 17675 ft 377 kts 49°
2026-05-06 16:18 56.07764 37.17969 18421 ft 380 kts 47°
2026-05-06 16:18 56.09518 37.21543 19068 ft 384 kts 45°
2026-05-06 16:18 56.10742 37.23936 19542 ft 387 kts 44°
2026-05-06 16:18 56.12578 37.27497 20222 ft 391 kts 47°
2026-05-06 16:19 56.14140 37.31531 20880 ft 398 kts 60°
2026-05-06 16:19 56.15222 37.36125 21516 ft 406 kts 72°
2026-05-06 16:19 56.15739 37.41191 21764 ft 421 kts 87°
2026-05-06 16:19 56.15653 37.46396 22255 ft 426 kts 94°
2026-05-06 16:20 56.15468 37.51725 22870 ft 430 kts 94°
2026-05-06 16:20 56.15297 37.57104 23448 ft 434 kts 94°
2026-05-06 16:20 56.15135 37.62541 23951 ft 438 kts 93°
2026-05-06 16:20 56.14976 37.68008 24455 ft 441 kts 93°
2026-05-06 16:21 56.14814 37.73516 24942 ft 444 kts 93°
2026-05-06 16:21 56.14647 37.79051 25438 ft 446 kts 94°
2026-05-06 16:21 56.14469 37.84632 25925 ft 449 kts 94°
2026-05-06 16:21 56.14284 37.90238 26404 ft 452 kts 94°
2026-05-06 16:22 56.14093 37.95877 26875 ft 455 kts 94°
2026-05-06 16:22 56.13900 38.01557 27345 ft 458 kts 94°
2026-05-06 16:22 56.13707 38.07258 27834 ft 459 kts 94°
2026-05-06 16:22 56.13511 38.12981 28352 ft 460 kts 94°
2026-05-06 16:23 56.13311 38.18723 28823 ft 463 kts 94°
2026-05-06 16:23 56.13106 38.24494 29273 ft 465 kts 94°
2026-05-06 16:23 56.12897 38.30299 29692 ft 468 kts 94°
2026-05-06 16:23 56.12684 38.36141 30065 ft 472 kts 94°
2026-05-06 16:24 56.12467 38.42033 30354 ft 476 kts 94°
2026-05-06 16:24 56.12249 38.47964 30682 ft 478 kts 94°
2026-05-06 16:24 56.12025 38.53924 31020 ft 481 kts 94°
2026-05-06 16:24 56.11795 38.59925 31356 ft 484 kts 94°
2026-05-06 16:25 56.11562 38.65944 31686 ft 485 kts 94°
2026-05-06 16:25 56.11323 38.71970 32148 ft 484 kts 93°
2026-05-06 16:25 56.11082 38.77964 32678 ft 481 kts 93°
2026-05-06 16:25 56.10839 38.83931 33198 ft 479 kts 93°
2026-05-06 16:26 56.10598 38.89866 33676 ft 478 kts 93°
2026-05-06 16:26 56.10356 38.95797 34106 ft 477 kts 93°
2026-05-06 16:26 56.10111 39.01716 34493 ft 476 kts 93°
2026-05-06 16:26 56.09863 39.07634 34802 ft 477 kts 93°
2026-05-06 16:27 56.09359 39.19321 34887 ft 470 kts 94°
2026-05-06 16:27 56.08841 39.30969 34887 ft 469 kts 94°
2026-05-06 16:28 56.08318 39.42613 34883 ft 469 kts 92°
2026-05-06 16:28 56.08824 39.54120 34890 ft 462 kts 73°
2026-05-06 16:29 56.11211 39.64663 34891 ft 455 kts 55°
2026-05-06 16:29 56.14630 39.74161 34887 ft 453 kts 54°
2026-05-06 16:30 56.17457 39.82084 34884 ft 453 kts 54°
2026-05-06 16:30 56.21411 39.93270 34895 ft 454 kts 54°
2026-05-06 16:31 56.24806 40.02850 34888 ft 455 kts 54°
2026-05-06 16:31 56.28202 40.12477 34878 ft 455 kts 54°
2026-05-06 16:32 56.31595 40.22120 34890 ft 456 kts 54°
2026-05-06 16:32 56.34986 40.31782 34890 ft 456 kts 54°
2026-05-06 16:33 56.38367 40.41476 34901 ft 456 kts 54°
2026-05-06 16:34 56.43416 40.56067 34885 ft 457 kts 54°
2026-05-06 16:34 56.46367 40.66273 34891 ft 462 kts 68°
2026-05-06 16:35 56.48138 40.77410 34886 ft 464 kts 72°
2026-05-06 16:35 56.49836 40.88701 34887 ft 465 kts 72°
2026-05-06 16:36 56.51525 41.00001 34906 ft 465 kts 72°
2026-05-06 16:36 56.53194 41.11317 34898 ft 464 kts 72°
2026-05-06 16:37 56.54863 41.22629 34888 ft 465 kts 72°
2026-05-06 16:37 56.56525 41.33950 34894 ft 465 kts 72°
2026-05-06 16:38 56.58173 41.45290 34894 ft 465 kts 72°
2026-05-06 16:38 56.59808 41.56638 34892 ft 465 kts 72°
2026-05-06 16:39 56.61424 41.68011 34893 ft 465 kts 72°
2026-05-06 16:39 56.63037 41.79404 34884 ft 466 kts 72°
2026-05-06 16:40 56.64649 41.90815 34885 ft 466 kts 72°
2026-05-06 16:40 56.66253 42.02234 34869 ft 466 kts 72°
2026-05-06 16:41 56.67838 42.13630 34900 ft 464 kts 72°
2026-05-06 16:41 56.69405 42.25000 34920 ft 463 kts 72°
2026-05-06 16:42 56.70958 42.36377 34896 ft 463 kts 72°
2026-05-06 16:42 56.72506 42.47765 34877 ft 464 kts 72°
2026-05-06 16:43 56.74062 42.59152 34875 ft 463 kts 71°
2026-05-06 16:43 56.75858 42.70410 34872 ft 462 kts 69°
2026-05-06 16:44 56.77768 42.81510 34872 ft 462 kts 69°
2026-05-06 16:44 56.79657 42.92809 34874 ft 463 kts 69°
2026-05-06 16:45 56.81455 43.04009 34861 ft 464 kts 70°
2026-05-06 16:45 56.83239 43.15333 34848 ft 464 kts 70°
2026-05-06 16:46 56.85025 43.26657 34857 ft 464 kts 70°
2026-05-06 16:46 56.86812 43.37994 34858 ft 464 kts 70°
2026-05-06 16:47 56.88593 43.49356 34864 ft 465 kts 70°
2026-05-06 16:47 56.90362 43.60716 34864 ft 464 kts 71°
2026-05-06 16:48 56.92120 43.72076 34866 ft 464 kts 71°
2026-05-06 16:48 56.93864 43.83463 34859 ft 465 kts 71°
2026-05-06 16:49 56.95596 43.94859 34858 ft 464 kts 71°
2026-05-06 16:49 56.97317 44.06275 34858 ft 464 kts 71°
2026-05-06 16:50 56.99031 44.17688 34855 ft 464 kts 71°
2026-05-06 16:50 57.00737 44.29108 34838 ft 464 kts 72°
2026-05-06 16:51 57.02432 44.40536 34842 ft 464 kts 73°
2026-05-06 16:51 57.04111 44.51982 34849 ft 464 kts 73°
2026-05-06 16:52 57.05778 44.63438 34850 ft 464 kts 73°
2026-05-06 16:52 57.07447 44.74910 34868 ft 464 kts 73°
2026-05-06 16:53 57.09105 44.86405 34854 ft 466 kts 73°
2026-05-06 16:53 57.10748 44.97928 34850 ft 466 kts 73°
2026-05-06 16:54 57.12383 45.09466 34844 ft 466 kts 73°
2026-05-06 16:54 57.14006 45.21018 34848 ft 466 kts 73°
2026-05-06 16:55 57.15607 45.32504 34847 ft 466 kts 73°
2026-05-06 16:55 57.17216 45.44090 34856 ft 468 kts 74°
2026-05-06 16:56 57.18820 45.55718 34841 ft 469 kts 74°
2026-05-06 16:56 57.20416 45.67391 34840 ft 470 kts 74°
2026-05-06 16:57 57.22002 45.79114 34840 ft 471 kts 74°
2026-05-06 16:57 57.23579 45.90842 34838 ft 471 kts 75°
2026-05-06 16:58 57.25144 46.02591 34861 ft 471 kts 75°
2026-05-06 16:58 57.26699 46.14377 34842 ft 472 kts 75°
2026-05-06 16:59 57.28251 46.26194 34837 ft 474 kts 75°
2026-05-06 16:59 57.29794 46.38050 34838 ft 475 kts 75°
2026-05-06 17:00 57.31335 46.49930 34841 ft 475 kts 75°
2026-05-06 17:00 57.32868 46.61823 34845 ft 475 kts 75°
2026-05-06 17:01 57.34390 46.73762 34827 ft 477 kts 76°
2026-05-06 17:01 57.36766 46.85209 34835 ft 478 kts 65°
2026-05-06 17:02 57.39507 46.96438 34840 ft 478 kts 65°
2026-05-06 17:02 57.42239 47.07701 34842 ft 479 kts 65°
2026-05-06 17:03 57.44957 47.18992 34844 ft 480 kts 65°
2026-05-06 17:03 57.47673 47.30327 34851 ft 481 kts 65°
2026-05-06 17:04 57.50373 47.41629 34841 ft 482 kts 65°
2026-05-06 17:04 57.53089 47.53017 34840 ft 482 kts 65°
2026-05-06 17:05 57.55794 47.64425 34833 ft 481 kts 66°
2026-05-06 17:05 57.58479 47.75844 34832 ft 481 kts 66°
2026-05-06 17:06 57.61160 47.87300 34834 ft 483 kts 66°
2026-05-06 17:06 57.63834 47.98793 34828 ft 483 kts 66°
2026-05-06 17:07 57.66502 48.10319 34822 ft 484 kts 66°
2026-05-06 17:07 57.68725 48.19919 34826 ft 484 kts 66°
2026-05-06 17:08 57.71378 48.31490 34826 ft 484 kts 66°
2026-05-06 17:08 57.73999 48.43106 34821 ft 485 kts 69°
2026-05-06 17:09 57.75529 48.55363 34811 ft 484 kts 84°
2026-05-06 17:09 57.76414 48.67863 34806 ft 482 kts 84°
2026-05-06 17:10 57.77295 48.80314 34827 ft 482 kts 84°
2026-05-06 17:10 57.78169 48.92757 34830 ft 481 kts 84°
2026-05-06 17:11 57.79025 49.05175 34844 ft 481 kts 84°
2026-05-06 17:11 57.79869 49.17616 34827 ft 481 kts 84°
2026-05-06 17:12 57.80698 49.30061 34817 ft 481 kts 84°
2026-05-06 17:12 57.81515 49.42509 34808 ft 481 kts 84°
2026-05-06 17:13 57.82315 49.54972 34798 ft 481 kts 85°
2026-05-06 17:13 57.83106 49.67441 34796 ft 482 kts 85°
2026-05-06 17:14 57.83890 49.79908 34785 ft 480 kts 84°
2026-05-06 17:14 57.84659 49.92349 34812 ft 479 kts 84°
2026-05-06 17:15 57.85409 50.04750 34816 ft 478 kts 85°
2026-05-06 17:15 57.86157 50.17137 34816 ft 477 kts 84°
2026-05-06 17:16 57.86889 50.29506 34810 ft 476 kts 85°
2026-05-06 17:16 57.87601 50.41887 34818 ft 477 kts 85°
2026-05-06 17:17 57.88313 50.54276 34808 ft 477 kts 85°
2026-05-06 17:17 57.89017 50.66680 34795 ft 478 kts 85°
2026-05-06 17:18 57.89705 50.79096 34790 ft 477 kts 85°
2026-05-06 17:18 57.90376 50.91519 34770 ft 477 kts 85°
2026-05-06 17:19 57.91030 51.03910 34787 ft 476 kts 85°
2026-05-06 17:19 57.91665 51.16291 34807 ft 475 kts 85°
2026-05-06 17:20 57.92298 51.28668 34810 ft 475 kts 85°
2026-05-06 17:20 57.92926 51.41056 34806 ft 476 kts 85°
2026-05-06 17:21 57.93539 51.53433 34804 ft 475 kts 85°
2026-05-06 17:21 57.94146 51.65821 34800 ft 475 kts 85°
2026-05-06 17:22 57.94746 51.78211 34796 ft 475 kts 85°
2026-05-06 17:22 57.95334 51.90592 34803 ft 475 kts 86°
2026-05-06 17:23 57.95908 52.02889 34768 ft 474 kts 85°
2026-05-06 17:23 57.96462 52.15262 34774 ft 474 kts 85°
2026-05-06 17:24 57.96996 52.27626 34780 ft 474 kts 86°
2026-05-06 17:24 57.97538 52.39985 34785 ft 473 kts 85°
2026-05-06 17:25 57.98062 52.52336 34781 ft 473 kts 86°
2026-05-06 17:25 57.98566 52.64685 34786 ft 472 kts 86°
2026-05-06 17:26 57.99062 52.77034 34774 ft 473 kts 86°
2026-05-06 17:26 57.99546 52.89401 34771 ft 473 kts 86°
2026-05-06 17:27 58.00021 53.01775 34777 ft 473 kts 86°
2026-05-06 17:27 58.00481 53.14148 34774 ft 473 kts 86°
2026-05-06 17:28 58.00930 53.26499 34764 ft 471 kts 86°
2026-05-06 17:28 58.01361 53.38834 34779 ft 471 kts 86°
2026-05-06 17:29 58.01786 53.51159 34771 ft 471 kts 86°
2026-05-06 17:29 58.02201 53.63490 34762 ft 471 kts 86°
2026-05-06 17:30 58.02598 53.75827 34762 ft 471 kts 87°
2026-05-06 17:30 58.02981 53.88160 34758 ft 471 kts 87°
2026-05-06 17:31 58.03351 54.00512 34756 ft 471 kts 87°
2026-05-06 17:31 58.03728 54.12855 34761 ft 471 kts 87°
2026-05-06 17:32 58.04093 54.25218 34755 ft 472 kts 87°
2026-05-06 17:32 58.04440 54.37590 34744 ft 471 kts 87°
2026-05-06 17:33 58.04773 54.49932 34758 ft 471 kts 87°
2026-05-06 17:33 58.05100 54.62272 34764 ft 470 kts 87°
2026-05-06 17:34 58.05409 54.74602 34778 ft 470 kts 88°
2026-05-06 17:34 58.04912 54.86869 34765 ft 469 kts 98°
2026-05-06 17:35 58.04040 54.99069 34757 ft 469 kts 98°
2026-05-06 17:35 58.03177 55.11184 34749 ft 469 kts 98°
2026-05-06 17:36 58.01841 55.29461 34751 ft 468 kts 98°
2026-05-06 17:36 58.00955 55.41621 34742 ft 468 kts 98°
2026-05-06 17:37 58.00067 55.53756 34759 ft 467 kts 98°
2026-05-06 17:37 57.99159 55.65884 34772 ft 468 kts 99°
2026-05-06 17:38 57.98237 55.78023 34773 ft 468 kts 99°
2026-05-06 17:38 57.97294 55.90152 34777 ft 468 kts 99°
2026-05-06 17:39 57.96349 56.02278 34771 ft 468 kts 99°
2026-05-06 17:39 57.95406 56.14403 34772 ft 468 kts 99°
2026-05-06 17:40 57.94451 56.26510 34771 ft 466 kts 99°
2026-05-06 17:40 57.93473 56.38560 34793 ft 465 kts 99°
2026-05-06 17:41 57.92489 56.50589 34793 ft 465 kts 99°
2026-05-06 17:41 57.91500 56.62629 34801 ft 466 kts 99°
2026-05-06 17:42 57.90492 56.74654 34799 ft 466 kts 99°
2026-05-06 17:42 57.89474 56.86689 34797 ft 466 kts 99°
2026-05-06 17:43 57.88453 56.98721 34804 ft 466 kts 100°
2026-05-06 17:43 57.87421 57.10731 34798 ft 466 kts 100°
2026-05-06 17:44 57.86374 57.22729 34804 ft 465 kts 100°
2026-05-06 17:44 57.85315 57.34714 34803 ft 465 kts 100°
2026-05-06 17:45 57.84250 57.46596 34801 ft 465 kts 100°
2026-05-06 17:45 57.83170 57.58548 34796 ft 464 kts 100°
2026-05-06 17:46 57.82079 57.70481 34796 ft 464 kts 101°
2026-05-06 17:46 57.80971 57.82398 34791 ft 464 kts 101°
2026-05-06 17:47 57.79863 57.94301 34794 ft 463 kts 101°
2026-05-06 17:47 57.78747 58.06187 34812 ft 462 kts 101°
2026-05-06 17:48 57.77622 58.18055 34811 ft 462 kts 101°
2026-05-06 17:48 57.76483 58.29922 34819 ft 467 kts 101°
2026-05-06 17:49 57.75305 58.42114 34812 ft 481 kts 101°
2026-05-06 17:49 57.74316 58.52394 34812 ft 484 kts 101°
2026-05-06 17:50 57.72901 58.66873 34818 ft 484 kts 101°
2026-05-06 17:50 57.71677 58.79263 34817 ft 484 kts 101°
2026-05-06 17:51 57.70437 58.91629 34827 ft 484 kts 101°
2026-05-06 17:51 57.69190 59.03990 34818 ft 484 kts 101°
2026-05-06 17:52 57.68148 59.14267 34825 ft 484 kts 102°
2026-05-06 17:52 57.66866 59.26620 34831 ft 484 kts 102°
2026-05-06 17:53 57.65570 59.38959 34827 ft 484 kts 102°
2026-05-06 17:53 57.64271 59.51290 34824 ft 484 kts 102°
2026-05-06 17:54 57.62749 59.65605 34813 ft 484 kts 102°
2026-05-06 17:54 57.61645 59.75916 34821 ft 484 kts 102°
2026-05-06 17:55 57.60314 59.88233 34827 ft 485 kts 102°
2026-05-06 17:55 57.58966 60.00554 34837 ft 486 kts 102°
2026-05-06 17:56 57.57602 60.12884 34834 ft 486 kts 102°
2026-05-06 17:56 57.56235 60.25119 34834 ft 485 kts 103°
2026-05-06 17:57 57.54851 60.37414 34841 ft 485 kts 103°
2026-05-06 17:57 57.53460 60.49702 34834 ft 485 kts 103°
2026-05-06 17:58 57.52188 60.62024 34841 ft 486 kts 96°
2026-05-06 17:58 57.51795 60.74574 34841 ft 487 kts 94°
2026-05-06 17:59 57.51429 60.87143 34844 ft 487 kts 94°
2026-05-06 17:59 57.51048 60.99726 34836 ft 487 kts 94°
2026-05-06 18:00 57.50658 61.12286 34847 ft 486 kts 94°
2026-05-06 18:00 57.50257 61.24845 34851 ft 487 kts 94°
2026-05-06 18:01 57.49839 61.37411 34847 ft 487 kts 94°
2026-05-06 18:01 57.49408 61.49982 34845 ft 487 kts 94°
2026-05-06 18:02 57.48954 61.62546 34833 ft 487 kts 95°
2026-05-06 18:02 57.48491 61.75101 34837 ft 487 kts 95°
2026-05-06 18:03 57.48030 61.87670 34838 ft 487 kts 95°
2026-05-06 18:03 57.47559 62.00224 34848 ft 487 kts 95°
2026-05-06 18:04 57.47071 62.12793 34842 ft 488 kts 95°
2026-05-06 18:04 57.46566 62.25362 34839 ft 488 kts 95°
2026-05-06 18:05 57.46066 62.37846 34834 ft 488 kts 95°
2026-05-06 18:05 57.45558 62.50416 34838 ft 488 kts 95°
2026-05-06 18:06 57.45032 62.62976 34814 ft 488 kts 95°
2026-05-06 18:06 57.44487 62.75544 34834 ft 489 kts 95°
2026-05-06 18:07 57.43927 62.88138 34840 ft 490 kts 96°
2026-05-06 18:07 57.43361 63.00735 34847 ft 490 kts 96°
2026-05-06 18:08 57.42781 63.13324 34846 ft 490 kts 96°
2026-05-06 18:08 57.42184 63.25917 34846 ft 490 kts 96°
2026-05-06 18:09 57.41578 63.38524 34867 ft 491 kts 96°
2026-05-06 18:09 57.40957 63.51147 34861 ft 492 kts 96°
2026-05-06 18:10 57.40323 63.63773 34865 ft 492 kts 96°
2026-05-06 18:10 57.39594 63.76374 34864 ft 491 kts 102°
2026-05-06 18:11 57.37931 63.88605 34877 ft 489 kts 106°
2026-05-06 18:11 57.36204 64.00783 34884 ft 488 kts 106°
2026-05-06 18:12 57.34472 64.12931 34883 ft 488 kts 107°
2026-05-06 18:12 57.32727 64.25081 34869 ft 489 kts 107°
2026-05-06 18:13 57.30983 64.37158 34866 ft 490 kts 107°
2026-05-06 18:13 57.29204 64.49315 34877 ft 490 kts 107°
2026-05-06 18:14 57.27415 64.61456 34863 ft 489 kts 107°
2026-05-06 18:14 57.25620 64.73574 34884 ft 489 kts 107°
2026-05-06 18:15 57.23826 64.85661 34894 ft 488 kts 107°
2026-05-06 18:15 57.22014 64.97728 34897 ft 488 kts 107°
2026-05-06 18:16 57.20187 65.09784 34897 ft 488 kts 107°
2026-05-06 18:16 57.18351 65.21828 34897 ft 488 kts 107°
2026-05-06 18:17 57.16377 65.33771 34896 ft 486 kts 114°
2026-05-06 18:17 57.13824 65.45272 34883 ft 485 kts 114°
2026-05-06 18:18 57.11252 65.56749 34885 ft 485 kts 114°
2026-05-06 18:18 57.08683 65.68216 34901 ft 485 kts 115°
2026-05-06 18:19 57.06103 65.79657 34897 ft 485 kts 115°
2026-05-06 18:19 57.03505 65.91092 34900 ft 485 kts 115°
2026-05-06 18:20 57.00896 66.02529 34904 ft 486 kts 115°
2026-05-06 18:20 56.98283 66.13969 34901 ft 486 kts 115°
2026-05-06 18:21 56.95663 66.25397 34915 ft 486 kts 115°
2026-05-06 18:21 56.93029 66.36802 34917 ft 486 kts 115°
2026-05-06 18:22 56.90383 66.48191 34913 ft 486 kts 115°
2026-05-06 18:22 56.87744 66.59483 34916 ft 487 kts 115°
2026-05-06 18:23 56.85072 66.70861 34902 ft 487 kts 115°
2026-05-06 18:23 56.82373 66.82220 34906 ft 487 kts 116°
2026-05-06 18:24 56.79586 66.93486 34921 ft 487 kts 117°
2026-05-06 18:24 56.76760 67.04711 34934 ft 487 kts 117°
2026-05-06 18:25 56.73938 67.15943 34938 ft 487 kts 116°
2026-05-06 18:25 56.71125 67.27165 34949 ft 487 kts 116°
2026-05-06 18:26 56.68306 67.38374 34922 ft 487 kts 116°
2026-05-06 18:26 56.65467 67.49550 34928 ft 487 kts 117°
2026-05-06 18:27 56.62615 67.60713 34933 ft 487 kts 117°
2026-05-06 18:27 56.59756 67.71873 34939 ft 488 kts 117°
2026-05-06 18:28 56.56878 67.83010 34948 ft 488 kts 117°
2026-05-06 18:28 56.54003 67.94139 34949 ft 487 kts 117°
2026-05-06 18:29 56.51114 68.05248 34945 ft 487 kts 117°
2026-05-06 18:29 56.48214 68.16310 34950 ft 486 kts 117°
2026-05-06 18:30 56.45312 68.27347 34948 ft 486 kts 117°
2026-05-06 18:30 56.42401 68.38390 34948 ft 487 kts 117°
2026-05-06 18:31 56.39477 68.49414 34946 ft 487 kts 117°
2026-05-06 18:31 56.36543 68.60428 34959 ft 487 kts 117°
2026-05-06 18:32 56.33596 68.71434 34944 ft 487 kts 117°
2026-05-06 18:32 56.30643 68.82425 34970 ft 487 kts 117°
2026-05-06 18:33 56.27672 68.93392 34978 ft 488 kts 117°
2026-05-06 18:33 56.24686 69.04358 34977 ft 488 kts 117°
2026-05-06 18:34 56.21687 69.15321 34985 ft 489 kts 118°
2026-05-06 18:34 56.18676 69.26277 34988 ft 489 kts 118°
2026-05-06 18:35 56.15661 69.37196 34966 ft 489 kts 118°
2026-05-06 18:35 56.12541 69.48012 34975 ft 488 kts 121°
2026-05-06 18:36 56.09041 69.58404 34982 ft 486 kts 124°
2026-05-06 18:36 56.05626 69.68872 34984 ft 488 kts 119°
2026-05-06 18:37 56.03116 69.77909 34999 ft 489 kts 117°
2026-05-06 18:37 55.99715 69.90743 34963 ft 489 kts 117°
2026-05-06 18:38 55.96703 70.01626 34972 ft 489 kts 118°
2026-05-06 18:38 55.93604 70.12431 34974 ft 490 kts 119°
2026-05-06 18:39 55.90490 70.23238 34984 ft 490 kts 118°
2026-05-06 18:40 55.86356 70.37642 34999 ft 491 kts 118°
2026-05-06 18:40 55.82728 70.50197 35013 ft 490 kts 118°
2026-05-06 18:41 55.79603 70.60975 34994 ft 491 kts 118°
2026-05-06 18:41 55.76978 70.70005 34996 ft 491 kts 118°
2026-05-06 18:42 55.73840 70.80767 35012 ft 492 kts 119°
2026-05-06 18:42 55.70676 70.91519 35012 ft 492 kts 119°
2026-05-06 18:43 55.67534 71.02178 35017 ft 488 kts 119°
2026-05-06 18:43 55.65987 71.07416 35007 ft 474 kts 119°
2026-05-06 18:43 55.64466 71.12559 34760 ft 469 kts 119°
2026-05-06 18:43 55.62947 71.17659 34522 ft 467 kts 120°
2026-05-06 18:44 55.61427 71.22738 34282 ft 467 kts 120°
2026-05-06 18:44 55.59906 71.27812 34060 ft 467 kts 119°
2026-05-06 18:44 55.58386 71.32862 33695 ft 464 kts 119°
2026-05-06 18:44 55.56874 71.37872 33025 ft 460 kts 120°
2026-05-06 18:45 55.55369 71.42835 32374 ft 456 kts 120°
2026-05-06 18:45 55.53876 71.47754 31716 ft 453 kts 120°
2026-05-06 18:45 55.52390 71.52641 31064 ft 450 kts 120°
2026-05-06 18:45 55.50916 71.57480 30427 ft 446 kts 120°
2026-05-06 18:46 55.49451 71.62285 29728 ft 443 kts 120°
2026-05-06 18:46 55.48000 71.67037 29095 ft 437 kts 120°
2026-05-06 18:46 55.46568 71.71715 28464 ft 431 kts 120°
2026-05-06 18:46 55.45151 71.76323 27866 ft 425 kts 120°
2026-05-06 18:47 55.43751 71.80869 27275 ft 419 kts 120°
2026-05-06 18:47 55.42373 71.85347 26695 ft 413 kts 119°
2026-05-06 18:47 55.41014 71.89772 26135 ft 408 kts 119°
2026-05-06 18:47 55.39672 71.94133 25593 ft 402 kts 119°
2026-05-06 18:48 55.38345 71.98428 25051 ft 397 kts 120°
2026-05-06 18:48 55.37048 72.02613 24559 ft 392 kts 120°
2026-05-06 18:48 55.35750 72.06793 24045 ft 388 kts 120°
2026-05-06 18:48 55.34462 72.10929 23541 ft 384 kts 120°
2026-05-06 18:49 55.33189 72.15012 22986 ft 379 kts 120°
2026-05-06 18:49 55.31930 72.19041 22505 ft 374 kts 120°
2026-05-06 18:49 55.30685 72.23014 22018 ft 369 kts 120°
2026-05-06 18:49 55.29452 72.26938 21527 ft 366 kts 120°
2026-05-06 18:50 55.28227 72.30834 21022 ft 363 kts 120°
2026-05-06 18:50 55.27010 72.34702 20521 ft 361 kts 120°
2026-05-06 18:50 55.25801 72.38543 20022 ft 360 kts 120°
2026-05-06 18:50 55.24593 72.42377 19531 ft 358 kts 120°
2026-05-06 18:51 55.23392 72.46183 19003 ft 357 kts 120°
2026-05-06 18:51 55.22189 72.49988 18494 ft 356 kts 120°
2026-05-06 18:51 55.20990 72.53775 17941 ft 356 kts 120°
2026-05-06 18:51 55.19792 72.57548 17438 ft 353 kts 120°
2026-05-06 18:52 55.18597 72.61295 16922 ft 351 kts 120°
2026-05-06 18:52 55.17411 72.65015 16426 ft 349 kts 120°
2026-05-06 18:52 55.16396 72.68858 15937 ft 348 kts 109°
2026-05-06 18:52 55.15815 72.72960 15441 ft 348 kts 98°
2026-05-06 18:53 55.15554 72.77166 14941 ft 347 kts 96°
2026-05-06 18:53 55.15302 72.81364 14436 ft 347 kts 96°
2026-05-06 18:53 55.15042 72.85562 13930 ft 348 kts 96°
2026-05-06 18:53 55.14778 72.89766 13371 ft 348 kts 96°
2026-05-06 18:54 55.14513 72.93958 12844 ft 346 kts 96°
2026-05-06 18:54 55.14250 72.98128 12311 ft 344 kts 96°
2026-05-06 18:54 55.13988 73.02272 11776 ft 342 kts 96°
2026-05-06 18:54 55.13725 73.06396 11239 ft 341 kts 96°
2026-05-06 18:55 55.13463 73.10499 10691 ft 339 kts 96°
2026-05-06 18:55 55.13202 73.14574 10272 ft 334 kts 96°
2026-05-06 18:55 55.12950 73.18494 10131 ft 313 kts 96°
2026-05-06 18:55 55.12710 73.22172 9618 ft 299 kts 96°
2026-05-06 18:56 55.12474 73.25732 9444 ft 294 kts 96°
2026-05-06 18:56 55.12240 73.29285 9054 ft 295 kts 96°
2026-05-06 18:56 55.12010 73.32767 8455 ft 290 kts 96°
2026-05-06 18:56 55.11780 73.36292 7860 ft 287 kts 95°
2026-05-06 18:57 55.11557 73.39698 7288 ft 285 kts 95°
2026-05-06 18:57 55.11329 73.43117 6699 ft 282 kts 95°
2026-05-06 18:57 55.11100 73.46507 6096 ft 280 kts 95°
2026-05-06 18:57 55.10873 73.49875 5512 ft 279 kts 96°
2026-05-06 18:58 55.10647 73.53239 4952 ft 279 kts 96°
2026-05-06 18:58 55.10406 73.56588 4362 ft 277 kts 100°
2026-05-06 18:58 55.09656 73.59591 3928 ft 263 kts 132°
2026-05-06 18:58 55.08307 73.61415 3871 ft 232 kts 159°
2026-05-06 18:59 55.06825 73.61986 3832 ft 210 kts 184°
2026-05-06 18:59 55.05446 73.61544 3780 ft 198 kts 201°
2026-05-06 18:59 55.04124 73.60827 3663 ft 199 kts 201°
2026-05-06 18:59 55.02799 73.60113 3558 ft 199 kts 201°
2026-05-06 19:00 55.01483 73.59372 3473 ft 198 kts 207°
2026-05-06 19:00 55.00445 73.57923 3333 ft 191 kts 238°
2026-05-06 19:00 54.99969 73.55758 2988 ft 195 kts 258°
2026-05-06 19:00 54.99674 73.53446 2696 ft 196 kts 258°
2026-05-06 19:01 54.99378 73.51160 2437 ft 188 kts 258°
2026-05-06 19:01 54.99094 73.48998 2210 ft 177 kts 257°
2026-05-06 19:01 54.98832 73.47003 1979 ft 161 kts 257°
2026-05-06 19:01 54.98596 73.45215 1789 ft 140 kts 257°
2026-05-06 19:02 54.98389 73.43648 1586 ft 127 kts 257°
2026-05-06 19:02 54.98197 73.42197 1423 ft 120 kts 256°
2026-05-06 19:02 54.98010 73.40787 1260 ft 119 kts 257°
2026-05-06 19:02 54.97822 73.39374 1096 ft 120 kts 257°
2026-05-06 19:03 54.97634 73.37954 936 ft 121 kts 256°
2026-05-06 19:03 54.97446 73.36542 765 ft 122 kts 256°
2026-05-06 19:03 54.97254 73.35091 588 ft 124 kts 257°
2026-05-06 19:03 54.97063 73.33629 415 ft 124 kts 256°
2026-05-06 19:04 54.96871 73.32163 311 ft 114 kts 254°
2026-05-06 19:04 54.96724 73.31101 309 ft 65 kts 257°
2026-05-06 19:04 54.96644 73.30512 313 ft 44 kts 257°
2026-05-06 19:04 54.96581 73.30040 316 ft 37 kts 257°
2026-05-06 19:05 54.96530 73.29648 319 ft 33 kts 257°
2026-05-06 19:05 54.96485 73.29314 321 ft 23 kts 257°
2026-05-06 19:05 54.96444 73.29155 321 ft 10 kts 200°
2026-05-06 19:05 54.96365 73.29173 321 ft 13 kts 166°
2026-05-06 19:06 54.96275 73.29211 320 ft 14 kts 167°
2026-05-06 19:06 54.96170 73.29254 321 ft 16 kts 167°
2026-05-06 19:06 54.96081 73.29325 321 ft 14 kts 107°
2026-05-06 19:06 54.96102 73.29528 319 ft 21 kts 77°
2026-05-06 19:07 54.96140 73.29813 319 ft 26 kts 77°
2026-05-06 19:07 54.96181 73.30119 318 ft 21 kts 77°
2026-05-06 19:07 54.96217 73.30392 315 ft 25 kts 77°
2026-05-06 19:07 54.96260 73.30716 313 ft 27 kts 77°
2026-05-06 19:08 54.96304 73.31040 311 ft 28 kts 77°
2026-05-06 19:08 54.96344 73.31337 311 ft 27 kts 77°
2026-05-06 19:08 54.96372 73.31554 310 ft 15 kts 78°
2026-05-06 19:08 54.96321 73.31703 309 ft 15 kts 137°
2026-05-06 19:09 54.96292 73.31792 311 ft 5 kts 73°
2026-05-06 19:09 54.96299 73.31848 310 ft 5 kts 110°
2026-05-06 19:09 54.96275 73.31891 308 ft 5 kts 136°
2026-05-06 19:09 54.96269 73.31901 308 ft 0 kts 136°